When you browse on this site, cookies collect data to enhance your experience and personalize the content and advertising you see.
Visit our Privacy Policy to learn more. By continuing to use the site, you agree to this use of cookies and data.
  • Em Portugal
  • Lista de países
  • Para 7 dias
  • Temperatura da água
  • Mapa do tempo
  • Widgets de tempo
  • user-avatar
    Iniciar Sessão

    Previsão horária em Pinsk

    Hoje, 30 Maio, Sábado

    Tempo Temperatura Precipitação Vento Pressão Humidade
    00:00 +10°C° 0 mm 5 m/s 747 mmHg 90%
    01:00 +10°C° 0 mm 5 m/s 747 mmHg 90%
    02:00 +10°C° 0 mm 5 m/s 746 mmHg 90%
    03:00 +10°C° 0.1 mm 5 m/s 746 mmHg 91%
    04:00 +10°C° 0.1 mm 6 m/s 745 mmHg 91%
    05:00 +10°C° 0.1 mm 6 m/s 745 mmHg 91%
    06:00 +10°C° 0.3 mm 6 m/s 745 mmHg 92%
    07:00 +10°C° 0.3 mm 6 m/s 745 mmHg 92%
    08:00 +11°C° 0 mm 6 m/s 744 mmHg 93%
    09:00 +11°C° 2.6 mm 6 m/s 744 mmHg 94%
    10:00 +10°C° 2.6 mm 6 m/s 743 mmHg 95%
    11:00 +10°C° 2.6 mm 6 m/s 743 mmHg 96%
    12:00 +11°C° 3.4 mm 6 m/s 742 mmHg 96%
    13:00 +11°C° 3.4 mm 7 m/s 742 mmHg 95%
    14:00 +11°C° 3.4 mm 7 m/s 741 mmHg 95%
    15:00 +11°C° 1.7 mm 7 m/s 740 mmHg 95%
    16:00 +11°C° 1.7 mm 7 m/s 739 mmHg 96%
    17:00 +12°C° 1.7 mm 7 m/s 738 mmHg 96%
    18:00 +12°C° 2.9 mm 7 m/s 737 mmHg 96%
    19:00 +12°C° 2.9 mm 8 m/s 737 mmHg 96%
    20:00 +13°C° 2.9 mm 8 m/s 736 mmHg 96%
    21:00 +13°C° 1.3 mm 8 m/s 736 mmHg 95%
    22:00 +15°C° 1.3 mm 9 m/s 736 mmHg 94%
    23:00 +15°C° 1.3 mm 9 m/s 735 mmHg 92%

    Amanhã, 31 Maio, Domingo

    Tempo Temperatura Precipitação Vento Pressão Humidade
    00:00 +15°C° 0 mm 9 m/s 736 mmHg 93%
    01:00 +15°C° 0 mm 8 m/s 736 mmHg 93%
    02:00 +13°C° 0 mm 8 m/s 737 mmHg 93%
    03:00 +14°C° 0 mm 7 m/s 737 mmHg 93%
    04:00 +12°C° 0 mm 7 m/s 738 mmHg 93%
    05:00 +13°C° 0 mm 6 m/s 738 mmHg 93%
    06:00 +13°C° 0 mm 6 m/s 739 mmHg 91%
    07:00 +14°C° 0 mm 6 m/s 739 mmHg 89%
    08:00 +14°C° 0 mm 6 m/s 740 mmHg 87%
    09:00 +15°C° 0.3 mm 6 m/s 741 mmHg 86%
    10:00 +16°C° 0.3 mm 6 m/s 741 mmHg 85%
    11:00 +16°C° 0.3 mm 6 m/s 742 mmHg 84%
    12:00 +16°C° 0.8 mm 7 m/s 742 mmHg 86%
    13:00 +15°C° 0.8 mm 7 m/s 743 mmHg 87%
    14:00 +13°C° 0.8 mm 8 m/s 743 mmHg 89%
    15:00 +14°C° 1 mm 7 m/s 743 mmHg 90%
    16:00 +14°C° 1 mm 7 m/s 744 mmHg 91%
    17:00 +12°C° 1 mm 7 m/s 744 mmHg 93%
    18:00 +12°C° 0.1 mm 7 m/s 745 mmHg 91%
    19:00 +12°C° 0.1 mm 7 m/s 745 mmHg 89%
    20:00 +11°C° 0.1 mm 7 m/s 745 mmHg 87%
    21:00 +11°C° 0 mm 6 m/s 746 mmHg 87%
    22:00 +10°C° 0 mm 5 m/s 746 mmHg 87%
    23:00 +9°C° 0 mm 5 m/s 747 mmHg 87%

    Depois de amanhã, 1 Junho, Segunda-feira

    Tempo Temperatura Precipitação Vento Pressão Humidade
    00:00 +9°C° 0 mm 5 m/s 747 mmHg 88%
    01:00 +9°C° 0 mm 5 m/s 747 mmHg 89%
    02:00 +8°C° 0 mm 5 m/s 748 mmHg 90%
    03:00 +8°C° 0 mm 5 m/s 748 mmHg 89%
    04:00 +7°C° 0 mm 5 m/s 748 mmHg 88%
    05:00 +7°C° 0 mm 5 m/s 748 mmHg 86%
    06:00 +8°C° 0 mm 6 m/s 749 mmHg 81%
    07:00 +9°C° 0 mm 6 m/s 749 mmHg 76%
    08:00 +10°C° 0 mm 6 m/s 750 mmHg 71%
    09:00 +11°C° 0 mm 6 m/s 750 mmHg 67%
    10:00 +12°C° 0 mm 7 m/s 750 mmHg 63%
    11:00 +12°C° 0 mm 7 m/s 750 mmHg 59%
    12:00 +12°C° 0 mm 7 m/s 750 mmHg 61%
    13:00 +13°C° 0 mm 6 m/s 750 mmHg 62%
    14:00 +13°C° 0 mm 6 m/s 750 mmHg 63%
    15:00 +13°C° 0.1 mm 6 m/s 750 mmHg 65%
    16:00 +12°C° 0.1 mm 5 m/s 750 mmHg 66%
    17:00 +12°C° 0.1 mm 5 m/s 750 mmHg 68%
    18:00 +11°C° 0 mm 4 m/s 750 mmHg 72%
    19:00 +10°C° 0 mm 4 m/s 750 mmHg 75%
    20:00 +9°C° 0 mm 3 m/s 750 mmHg 78%
    21:00 +8°C° 0 mm 3 m/s 750 mmHg 81%
    22:00 +7°C° 0 mm 3 m/s 750 mmHg 84%
    23:00 +5°C° 0 mm 3 m/s 750 mmHg 86%

    2 Junho, Terça-feira

    Tempo Temperatura Precipitação Vento Pressão Humidade
    00:00 +5°C° 0 mm 3 m/s 750 mmHg 88%
    01:00 +4°C° 0 mm 3 m/s 750 mmHg 91%
    02:00 +4°C° 0 mm 3 m/s 750 mmHg 93%
    03:00 +4°C° 0 mm 3 m/s 750 mmHg 93%
    04:00 +4°C° 0 mm 3 m/s 750 mmHg 94%
    05:00 +4°C° 0 mm 3 m/s 750 mmHg 94%
    06:00 +5°C° 0.1 mm 4 m/s 750 mmHg 90%
    07:00 +6°C° 0.1 mm 4 m/s 750 mmHg 87%
    08:00 +8°C° 0.1 mm 4 m/s 750 mmHg 84%
    09:00 +8°C° 0.4 mm 4 m/s 749 mmHg 85%
    10:00 +8°C° 0.4 mm 4 m/s 749 mmHg 86%
    11:00 +8°C° 0.4 mm 4 m/s 749 mmHg 88%
    12:00 +11°C° 0.6 mm 4 m/s 748 mmHg 83%
    13:00 +12°C° 0.6 mm 5 m/s 748 mmHg 79%
    14:00 +13°C° 0.6 mm 5 m/s 748 mmHg 75%
    15:00 +14°C° 0.4 mm 4 m/s 747 mmHg 74%
    16:00 +14°C° 0.4 mm 4 m/s 747 mmHg 74%
    17:00 +14°C° 0.4 mm 4 m/s 747 mmHg 74%
    18:00 +13°C° 0.3 mm 4 m/s 746 mmHg 79%
    19:00 +12°C° 0.3 mm 4 m/s 746 mmHg 84%
    20:00 +11°C° 0.3 mm 4 m/s 746 mmHg 88%
    21:00 +10°C° 0.2 mm 4 m/s 746 mmHg 90%
    22:00 +10°C° 0.2 mm 4 m/s 745 mmHg 92%
    23:00 +10°C° 0.2 mm 4 m/s 745 mmHg 94%

    3 Junho, Quarta-feira

    Tempo Temperatura Precipitação Vento Pressão Humidade
    00:00 +9°C° 0.3 mm 5 m/s 744 mmHg 94%
    01:00 +9°C° 0.3 mm 6 m/s 744 mmHg 94%
    02:00 +9°C° 0.3 mm 6 m/s 743 mmHg 95%
    03:00 +9°C° 0.9 mm 6 m/s 743 mmHg 95%
    04:00 +9°C° 0.9 mm 6 m/s 742 mmHg 95%
    05:00 +9°C° 0.9 mm 7 m/s 742 mmHg 96%
    06:00 +9°C° 0.7 mm 6 m/s 742 mmHg 96%
    07:00 +9°C° 0.7 mm 6 m/s 742 mmHg 96%
    08:00 +9°C° 0.7 mm 6 m/s 742 mmHg 96%
    09:00 +10°C° 0.3 mm 6 m/s 742 mmHg 94%
    10:00 +12°C° 0.3 mm 5 m/s 742 mmHg 92%
    11:00 +14°C° 0.3 mm 5 m/s 742 mmHg 90%
    12:00 +13°C° 1.2 mm 4 m/s 742 mmHg 91%
    13:00 +13°C° 1.2 mm 4 m/s 742 mmHg 93%
    14:00 +12°C° 1.2 mm 3 m/s 742 mmHg 95%
    15:00 +13°C° 0.6 mm 3 m/s 742 mmHg 92%
    16:00 +15°C° 0.6 mm 2 m/s 742 mmHg 89%
    17:00 +16°C° 0.6 mm 2 m/s 742 mmHg 85%
    18:00 +15°C° 0.2 mm 2 m/s 743 mmHg 87%
    19:00 +14°C° 0.2 mm 1 m/s 743 mmHg 89%
    20:00 +13°C° 0.2 mm 1 m/s 743 mmHg 91%
    21:00 +12°C° 0 mm 1 m/s 743 mmHg 91%
    22:00 +11°C° 0 mm 1 m/s 743 mmHg 92%
    23:00 +10°C° 0 mm 1 m/s 744 mmHg 92%

    4 Junho, Quinta-feira

    Tempo Temperatura Precipitação Vento Pressão Humidade
    00:00 +10°C° 0 mm 1 m/s 744 mmHg 93%
    01:00 +10°C° 0 mm 1 m/s 744 mmHg 93%
    02:00 +10°C° 0 mm 1 m/s 744 mmHg 94%
    03:00 +10°C° 0 mm 1 m/s 744 mmHg 94%
    04:00 +10°C° 0 mm 1 m/s 744 mmHg 95%
    05:00 +10°C° 0 mm 1 m/s 744 mmHg 96%
    06:00 +10°C° 0 mm 2 m/s 743 mmHg 95%
    07:00 +12°C° 0 mm 2 m/s 743 mmHg 94%
    08:00 +13°C° 0 mm 2 m/s 743 mmHg 93%
    09:00 +13°C° 0.4 mm 3 m/s 743 mmHg 92%
    10:00 +13°C° 0.4 mm 3 m/s 743 mmHg 90%
    11:00 +14°C° 0.4 mm 4 m/s 743 mmHg 89%
    12:00 +14°C° 1 mm 4 m/s 742 mmHg 91%
    13:00 +13°C° 1 mm 4 m/s 742 mmHg 93%
    14:00 +13°C° 1 mm 4 m/s 742 mmHg 95%
    15:00 +13°C° 0.2 mm 4 m/s 742 mmHg 95%
    16:00 +13°C° 0.2 mm 4 m/s 742 mmHg 95%
    17:00 +13°C° 0.2 mm 4 m/s 741 mmHg 95%
    18:00 +13°C° 0 mm 4 m/s 741 mmHg 95%
    19:00 +13°C° 0 mm 4 m/s 741 mmHg 95%
    20:00 +13°C° 0 mm 4 m/s 741 mmHg 95%
    21:00 +13°C° 0 mm 3 m/s 741 mmHg 96%
    22:00 +12°C° 0 mm 3 m/s 741 mmHg 96%
    23:00 +11°C° 0 mm 3 m/s 741 mmHg 97%
    Mostrar mais